| time (UTC) | temp F | wind direction | speed MPH | gust MPH | rain 1hr in | rain 24hr in | rain mn in | humidity % | barometer mb |
| 20260831160227 | 78 | 178 | 2.0 | 5.0 | 0.00 | 0.03 | 0.00 | 62 | 1019.5 |
| 20260831155727 | 78 | 177 | 2.0 | 3.0 | 0.00 | 0.03 | 0.00 | 62 | 1019.4 |
| 20260831154726 | 78 | 136 | 1.0 | 3.0 | 0.00 | 0.03 | 0.00 | 63 | 1019.5 |
| 20260831154226 | 78 | 158 | 1.0 | 3.0 | 0.00 | 0.03 | 0.00 | 63 | 1019.6 |
| 20260831153726 | 78 | 59 | 1.0 | 3.0 | 0.00 | 0.03 | 0.00 | 63 | 1019.6 |
| 20260831153226 | 77 | 237 | 1.0 | 3.0 | 0.00 | 0.03 | 0.00 | 63 | 1019.6 |
| 20260831151726 | 77 | 147 | 1.0 | 5.0 | 0.00 | 0.03 | 0.00 | 65 | 1019.6 |
| 20260831151227 | 76 | 84 | 2.0 | 5.0 | 0.00 | 0.03 | 0.00 | 66 | 1019.6 |
| 20260831150726 | 76 | 34 | 3.0 | 5.0 | 0.00 | 0.03 | 0.00 | 66 | 1019.6 |
| 20260831150226 | 76 | 45 | 2.0 | 5.0 | 0.00 | 0.03 | 0.00 | 66 | 1019.7 |
| 20260831145226 | 76 | 26 | 3.0 | 5.0 | 0.00 | 0.03 | 0.00 | 68 | 1019.9 |
| 20260831144726 | 75 | 328 | 2.0 | 5.0 | 0.00 | 0.03 | 0.00 | 69 | 1019.8 |
| 20260831144227 | 75 | 32 | 3.0 | 5.0 | 0.00 | 0.03 | 0.00 | 68 | 1019.8 |
| 20260831143226 | 75 | 351 | 2.0 | 5.0 | 0.00 | 0.03 | 0.00 | 69 | 1020.0 |
| 20260831142728 | 75 | 48 | 3.0 | 5.0 | 0.00 | 0.03 | 0.00 | 69 | 1019.8 |
| 20260831141726 | 75 | 64 | 2.0 | 6.0 | 0.00 | 0.03 | 0.00 | 70 | 1019.8 |
| 20260831141227 | 74 | 348 | 1.0 | 5.0 | 0.00 | 0.03 | 0.00 | 70 | 1019.8 |
| 20260831140227 | 74 | 5 | 3.0 | 7.0 | 0.00 | 0.03 | 0.00 | 71 | 1019.6 |
| 20260831135726 | 74 | 319 | 2.0 | 8.0 | 0.00 | 0.03 | 0.00 | 71 | 1019.7 |
| 20260831135226 | 74 | 22 | 3.0 | 8.0 | 0.00 | 0.03 | 0.00 | 71 | 1019.6 |
| 20260831134727 | 74 | 22 | 2.0 | 6.0 | 0.00 | 0.03 | 0.00 | 72 | 1019.6 |
| 20260831134227 | 73 | 349 | 3.0 | 8.0 | 0.00 | 0.03 | 0.00 | 72 | 1019.6 |
| 20260831133726 | 73 | 342 | 3.0 | 8.0 | 0.00 | 0.03 | 0.00 | 72 | 1019.6 |
| 20260831133227 | 73 | 5 | 3.0 | 7.0 | 0.00 | 0.03 | 0.00 | 72 | 1019.5 |
| 20260831132726 | 73 | 355 | 2.0 | 8.0 | 0.00 | 0.03 | 0.00 | 73 | 1019.4 |
| 20260831132227 | 73 | 312 | 5.0 | 8.0 | 0.00 | 0.03 | 0.00 | 72 | 1019.5 |
| 20260831131726 | 73 | 328 | 2.0 | 7.0 | 0.00 | 0.03 | 0.00 | 73 | 1019.6 |
| 20260831131227 | 73 | 16 | 2.0 | 8.0 | 0.00 | 0.03 | 0.00 | 74 | 1019.6 |
| 20260831130726 | 73 | 344 | 5.0 | 8.0 | 0.00 | 0.03 | 0.00 | 73 | 1019.7 |
| 20260831130226 | 73 | 347 | 3.0 | 9.0 | 0.00 | 0.03 | 0.00 | 73 | 1019.6 |
| 20260831125726 | 73 | 25 | 5.0 | 10.0 | 0.00 | 0.03 | 0.00 | 72 | 1019.6 |
| 20260831125226 | 73 | 51 | 3.0 | 10.0 | 0.00 | 0.03 | 0.00 | 72 | 1019.6 |
| 20260831124727 | 73 | 16 | 3.0 | 8.0 | 0.00 | 0.03 | 0.00 | 72 | 1019.6 |
| 20260831124226 | 73 | 26 | 4.0 | 10.0 | 0.00 | 0.03 | 0.00 | 72 | 1019.6 |
| 20260831123726 | 73 | 5 | 5.0 | 10.0 | 0.00 | 0.03 | 0.00 | 73 | 1019.6 |
| 20260831123227 | 73 | 313 | 5.0 | 9.0 | 0.00 | 0.03 | 0.00 | 73 | 1019.6 |
| 20260831122726 | 73 | 34 | 3.0 | 10.0 | 0.00 | 0.03 | 0.00 | 73 | 1019.5 |
| 20260831121227 | 73 | 44 | 5.0 | 9.0 | 0.00 | 0.03 | 0.00 | 72 | 1019.4 |
| 20260831120726 | 73 | 5 | 4.0 | 9.0 | 0.00 | 0.03 | 0.00 | 71 | 1019.4 |
| 20260831120226 | 73 | 9 | 3.0 | 9.0 | 0.00 | 0.03 | 0.00 | 72 | 1019.4 |
| 20260831115727 | 73 | 33 | 4.0 | 9.0 | 0.00 | 0.03 | 0.00 | 72 | 1019.5 |
| 20260831115226 | 73 | 351 | 3.0 | 8.0 | 0.00 | 0.03 | 0.00 | 73 | 1019.4 |
| 20260831114726 | 72 | 5 | 3.0 | 6.0 | 0.00 | 0.03 | 0.00 | 74 | 1019.3 |
| 20260831114226 | 72 | 5 | 3.0 | 8.0 | 0.00 | 0.03 | 0.00 | 74 | 1019.2 |
| 20260831113726 | 72 | 346 | 3.0 | 8.0 | 0.00 | 0.03 | 0.00 | 75 | 1019.2 |
| 20260831113227 | 72 | 17 | 3.0 | 8.0 | 0.00 | 0.03 | 0.00 | 75 | 1019.1 |
| 20260831112726 | 72 | 22 | 2.0 | 8.0 | 0.00 | 0.03 | 0.00 | 75 | 1019.1 |
| 20260831112227 | 72 | 349 | 2.0 | 7.0 | 0.00 | 0.03 | 0.00 | 75 | 1019.1 |
| 20260831111727 | 72 | 355 | 3.0 | 7.0 | 0.00 | 0.03 | 0.00 | 75 | 1019.0 |
| 20260831111226 | 72 | 327 | 2.0 | 8.0 | 0.00 | 0.03 | 0.00 | 75 | 1019.1 |
| 20260831110727 | 72 | 38 | 3.0 | 8.0 | 0.00 | 0.03 | 0.00 | 75 | 1019.1 |
| 20260831105726 | 72 | 355 | 2.0 | 8.0 | 0.00 | 0.03 | 0.00 | 75 | 1019.1 |
| 20260831105226 | 72 | 31 | 3.0 | 8.0 | 0.00 | 0.03 | 0.00 | 75 | 1019.0 |
| 20260831104227 | 72 | 329 | 2.0 | 6.0 | 0.00 | 0.03 | 0.00 | 75 | 1018.8 |
| 20260831103726 | 72 | 355 | 2.0 | 7.0 | 0.00 | 0.03 | 0.00 | 75 | 1018.8 |
| 20260831103226 | 72 | 41 | 3.0 | 7.0 | 0.00 | 0.03 | 0.00 | 76 | 1018.8 |
| 20260831102726 | 72 | 21 | 2.0 | 7.0 | 0.00 | 0.03 | 0.00 | 77 | 1018.8 |
| 20260831101726 | 72 | 0 | 2.0 | 6.0 | 0.00 | 0.03 | 0.00 | 77 | 1018.7 |
| 20260831100226 | 72 | 32 | 3.0 | 5.0 | 0.00 | 0.03 | 0.00 | 77 | 1018.5 |
| 20260831095726 | 72 | 340 | 2.0 | 9.0 | 0.00 | 0.03 | 0.00 | 77 | 1018.6 |
| 20260831095226 | 72 | 340 | 2.0 | 9.0 | 0.00 | 0.03 | 0.00 | 77 | 1018.5 |
| 20260831094226 | 72 | 32 | 2.0 | 7.0 | 0.00 | 0.03 | 0.00 | 77 | 1018.3 |
| 20260831093726 | 72 | 355 | 1.0 | 5.0 | 0.00 | 0.03 | 0.00 | 77 | 1018.3 |
| 20260831093226 | 72 | 347 | 3.0 | 5.0 | 0.00 | 0.03 | 0.00 | 77 | 1018.3 |
| 20260831092726 | 72 | 29 | 1.0 | 8.0 | 0.00 | 0.03 | 0.00 | 76 | 1018.2 |
| 20260831092226 | 72 | 5 | 3.0 | 8.0 | 0.00 | 0.03 | 0.00 | 76 | 1018.1 |
| 20260831091726 | 72 | 16 | 3.0 | 6.0 | 0.00 | 0.03 | 0.00 | 76 | 1018.2 |
| 20260831091225 | 72 | 323 | 2.0 | 5.0 | 0.00 | 0.03 | 0.00 | 76 | 1018.1 |
| 20260831090726 | 72 | 0 | 2.0 | 5.0 | 0.00 | 0.03 | 0.00 | 76 | 1018.1 |
| 20260831085727 | 72 | 319 | 2.0 | 3.0 | 0.00 | 0.03 | 0.00 | 76 | 1018.0 |
| 20260831085226 | 72 | 5 | 2.0 | 3.0 | 0.00 | 0.03 | 0.00 | 75 | 1018.0 |
| 20260831084226 | 72 | 309 | 2.0 | 5.0 | 0.00 | 0.03 | 0.00 | 75 | 1018.1 |
| 20260831083225 | 73 | 346 | 2.0 | 5.0 | 0.00 | 0.03 | 0.00 | 74 | 1018.0 |
| 20260831082725 | 73 | 355 | 2.0 | 8.0 | 0.00 | 0.03 | 0.00 | 74 | 1017.9 |
| 20260831082225 | 73 | 355 | 2.0 | 8.0 | 0.00 | 0.03 | 0.00 | 74 | 1018.0 |
| 20260831081725 | 73 | 32 | 2.0 | 8.0 | 0.00 | 0.03 | 0.00 | 74 | 1018.0 |
| 20260831081226 | 73 | 15 | 2.0 | 7.0 | 0.00 | 0.03 | 0.00 | 73 | 1017.9 |
| 20260831080726 | 73 | 355 | 3.0 | 7.0 | 0.00 | 0.03 | 0.00 | 73 | 1018.0 |
| 20260831080225 | 73 | 343 | 3.0 | 7.0 | 0.00 | 0.03 | 0.00 | 74 | 1017.9 |
| 20260831075727 | 73 | 342 | 3.0 | 7.0 | 0.00 | 0.03 | 0.00 | 73 | 1018.0 |
| 20260831075226 | 73 | 337 | 3.0 | 7.0 | 0.00 | 0.03 | 0.00 | 73 | 1018.0 |
| 20260831074725 | 73 | 46 | 2.0 | 6.0 | 0.00 | 0.03 | 0.00 | 73 | 1018.1 |
| 20260831074225 | 73 | 9 | 2.0 | 6.0 | 0.00 | 0.03 | 0.00 | 73 | 1017.9 |
| 20260831073226 | 73 | 325 | 3.0 | 8.0 | 0.00 | 0.03 | 0.00 | 74 | 1018.0 |
| 20260831072726 | 73 | 355 | 2.0 | 5.0 | 0.00 | 0.03 | 0.00 | 74 | 1018.0 |
| 20260831072226 | 73 | 331 | 3.0 | 5.0 | 0.00 | 0.03 | 0.00 | 74 | 1018.0 |
| 20260831071726 | 73 | 355 | 2.0 | 8.0 | 0.00 | 0.03 | 0.00 | 74 | 1018.1 |
| 20260831071225 | 73 | 355 | 3.0 | 8.0 | 0.00 | 0.03 | 0.00 | 74 | 1017.9 |
| 20260831070225 | 73 | 336 | 3.0 | 7.0 | 0.00 | 0.03 | 0.00 | 74 | 1018.2 |
| 20260831065725 | 73 | 273 | 2.0 | 7.0 | 0.00 | 0.03 | 0.00 | 75 | 1018.2 |
| 20260831064226 | 73 | 253 | 1.0 | 3.0 | 0.00 | 0.03 | 0.00 | 75 | 1018.2 |
| 20260831063726 | 73 | 196 | 1.0 | 3.0 | 0.00 | 0.03 | 0.00 | 75 | 1018.2 |
| 20260831063225 | 73 | 275 | 1.0 | 3.0 | 0.00 | 0.03 | 0.00 | 75 | 1018.2 |
| 20260831062725 | 73 | 275 | 1.0 | 3.0 | 0.00 | 0.03 | 0.00 | 75 | 1018.2 |
| 20260831062227 | 73 | 300 | 1.0 | 5.0 | 0.00 | 0.03 | 0.00 | 75 | 1018.0 |
| 20260831061726 | 73 | 292 | 1.0 | 5.0 | 0.00 | 0.03 | 0.00 | 75 | 1018.0 |
| 20260831061226 | 74 | 322 | 1.0 | 5.0 | 0.00 | 0.03 | 0.00 | 75 | 1018.1 |
| 20260831060727 | 74 | 263 | 1.0 | 5.0 | 0.00 | 0.03 | 0.00 | 75 | 1018.1 |
| 20260831060225 | 74 | 299 | 2.0 | 5.0 | 0.00 | 0.03 | 0.00 | 75 | 1018.1 |
| 20260831055725 | 74 | 326 | 2.0 | 5.0 | 0.00 | 0.03 | 0.00 | 75 | 1018.2 |
| 20260831055226 | 74 | 9 | 2.0 | 5.0 | 0.00 | 0.03 | 0.00 | 75 | 1018.1 |
| 20260831054726 | 74 | 270 | 1.0 | 3.0 | 0.00 | 0.03 | 0.00 | 75 | 1018.2 |
| 20260831054225 | 74 | 278 | 1.0 | 3.0 | 0.00 | 0.03 | 0.00 | 75 | 1018.3 |
| 20260831053725 | 74 | 296 | 1.0 | 3.0 | 0.00 | 0.03 | 0.00 | 75 | 1018.3 |
| 20260831053226 | 74 | 313 | 1.0 | 3.0 | 0.00 | 0.03 | 0.00 | 75 | 1018.2 |
| 20260831052726 | 74 | 0 | 1.0 | 6.0 | 0.00 | 0.03 | 0.00 | 75 | 1018.1 |
| 20260831052225 | 74 | 321 | 1.0 | 6.0 | 0.00 | 0.03 | 0.00 | 76 | 1018.1 |
| 20260831051725 | 75 | 237 | 1.0 | 6.0 | 0.00 | 0.03 | 0.00 | 77 | 1018.2 |
| 20260831051225 | 75 | 305 | 1.0 | 3.0 | 0.00 | 0.03 | 0.00 | 78 | 1018.2 |
| 20260831050726 | 75 | 305 | 1.0 | 3.0 | 0.00 | 0.03 | 0.00 | 78 | 1018.3 |
| 20260831050225 | 75 | 301 | 0.0 | 3.0 | 0.00 | 0.03 | 0.00 | 79 | 1018.3 |
| 20260831045227 | 75 | 325 | 0.0 | 3.0 | 0.00 | 0.03 | 0.00 | 80 | 1018.3 |
| 20260831044726 | 75 | 325 | 0.0 | 1.0 | 0.00 | 0.03 | 0.00 | 80 | 1018.2 |
| 20260831044226 | 75 | 325 | 0.0 | 1.0 | 0.00 | 0.03 | 0.00 | 80 | 1018.2 |
| 20260831043726 | 75 | 325 | 0.0 | 2.0 | 0.00 | 0.03 | 0.00 | 81 | 1018.2 |
| 20260831043226 | 75 | 325 | 0.0 | 2.0 | 0.00 | 0.03 | 0.00 | 80 | 1018.1 |
| 20260831042728 | 75 | 290 | 0.0 | 2.0 | 0.00 | 0.03 | 0.00 | 81 | 1018.0 |
| 20260831041706 | 75 | 316 | 0.0 | 3.0 | 0.00 | 0.03 | 0.00 | 81 | 1017.9 |
| 20260831040728 | 75 | 319 | 0.0 | 5.0 | 0.00 | 0.03 | 0.00 | 81 | 1017.9 |
| 20260831040228 | 75 | 319 | 2.0 | 5.0 | 0.00 | 0.03 | 0.00 | 81 | 1018.0 |
| 20260831035727 | 75 | 279 | 1.0 | 3.0 | 0.00 | 0.03 | 0.03 | 81 | 1018.0 |
| 20260831034728 | 76 | 288 | 1.0 | 3.0 | 0.00 | 0.03 | 0.03 | 81 | 1018.0 |
| 20260831034228 | 76 | 277 | 1.0 | 3.0 | 0.00 | 0.03 | 0.03 | 81 | 1018.0 |
| 20260831033728 | 76 | 272 | 1.0 | 3.0 | 0.00 | 0.03 | 0.03 | 81 | 1017.8 |
| 20260831032229 | 76 | 303 | 1.0 | 8.0 | 0.00 | 0.03 | 0.03 | 82 | 1018.0 |
| 20260831031727 | 76 | 267 | 2.0 | 8.0 | 0.00 | 0.03 | 0.03 | 82 | 1018.0 |
| 20260831031228 | 76 | 355 | 2.0 | 3.0 | 0.00 | 0.03 | 0.03 | 82 | 1017.9 |
| 20260831030728 | 76 | 334 | 1.0 | 3.0 | 0.00 | 0.03 | 0.03 | 82 | 1017.8 |
| 20260831030228 | 76 | 309 | 1.0 | 3.0 | 0.01 | 0.03 | 0.03 | 82 | 1017.7 |
| 20260831025728 | 76 | 239 | 1.0 | 2.0 | 0.01 | 0.03 | 0.03 | 82 | 1017.7 |
| 20260831025227 | 76 | 239 | 0.0 | 2.0 | 0.02 | 0.03 | 0.03 | 83 | 1017.8 |
| 20260831024728 | 76 | 238 | 0.0 | 2.0 | 0.02 | 0.03 | 0.03 | 83 | 1017.9 |
| 20260831024227 | 77 | 238 | 0.0 | 3.0 | 0.02 | 0.03 | 0.03 | 82 | 1018.0 |
| 20260831023228 | 77 | 235 | 1.0 | 3.0 | 0.03 | 0.03 | 0.03 | 82 | 1018.3 |
| 20260831022728 | 77 | 258 | 2.0 | 3.0 | 0.03 | 0.03 | 0.03 | 81 | 1018.3 |
| 20260831022227 | 77 | 306 | 1.0 | 6.0 | 0.03 | 0.03 | 0.03 | 81 | 1018.4 |
| 20260831021728 | 77 | 254 | 1.0 | 7.0 | 0.03 | 0.03 | 0.03 | 80 | 1018.4 |
| 20260831021228 | 77 | 250 | 2.0 | 8.0 | 0.03 | 0.03 | 0.03 | 80 | 1018.5 |
| 20260831020728 | 78 | 269 | 2.0 | 8.0 | 0.03 | 0.03 | 0.03 | 80 | 1018.5 |
| 20260831020227 | 78 | 242 | 1.0 | 8.0 | 0.02 | 0.02 | 0.02 | 80 | 1018.5 |
| 20260831015228 | 79 | 252 | 1.0 | 3.0 | 0.01 | 0.01 | 0.01 | 79 | 1018.4 |
| 20260831014228 | 79 | 247 | 1.0 | 3.0 | 0.01 | 0.01 | 0.01 | 78 | 1018.3 |
| 20260831013728 | 79 | 254 | 1.0 | 2.0 | 0.00 | 0.00 | 0.00 | 78 | 1018.3 |
| 20260831013228 | 79 | 254 | 1.0 | 2.0 | 0.00 | 0.00 | 0.00 | 77 | 1018.2 |
| 20260831012728 | 79 | 253 | 0.0 | 3.0 | 0.00 | 0.00 | 0.00 | 77 | 1018.1 |
| 20260831011727 | 79 | 240 | 0.0 | 2.0 | 0.00 | 0.00 | 0.00 | 76 | 1018.1 |
| 20260831011228 | 79 | 236 | 0.0 | 3.0 | 0.00 | 0.00 | 0.00 | 76 | 1018.1 |
| 20260831010727 | 79 | 232 | 2.0 | 3.0 | 0.00 | 0.00 | 0.00 | 76 | 1018.1 |
| 20260831010228 | 79 | 266 | 1.0 | 3.0 | 0.00 | 0.00 | 0.00 | 75 | 1017.9 |
| 20260831005727 | 80 | 259 | 1.0 | 3.0 | 0.00 | 0.00 | 0.00 | 75 | 1017.9 |
| 20260831005227 | 80 | 232 | 1.0 | 3.0 | 0.00 | 0.00 | 0.00 | 75 | 1017.8 |
| 20260831004228 | 80 | 219 | 1.0 | 3.0 | 0.00 | 0.00 | 0.00 | 74 | 1017.7 |
| 20260831003727 | 80 | 232 | 0.0 | 3.0 | 0.00 | 0.00 | 0.00 | 74 | 1017.7 |
| 20260831002728 | 80 | 252 | 2.0 | 5.0 | 0.00 | 0.00 | 0.00 | 73 | 1017.6 |
| 20260831002228 | 80 | 239 | 2.0 | 5.0 | 0.00 | 0.00 | 0.00 | 72 | 1017.5 |
| 20260831001727 | 80 | 177 | 2.0 | 5.0 | 0.00 | 0.00 | 0.00 | 72 | 1017.4 |
| 20260831000728 | 80 | 211 | 1.0 | 3.0 | 0.00 | 0.00 | 0.00 | 72 | 1017.3 |
| 20260831000228 | 80 | 186 | 2.0 | 5.0 | 0.00 | 0.00 | 0.00 | 71 | 1017.3 |
| 20260830235728 | 80 | 230 | 2.0 | 5.0 | 0.00 | 0.00 | 0.00 | 71 | 1017.2 |
| 20260830235228 | 80 | 267 | 1.0 | 3.0 | 0.00 | 0.00 | 0.00 | 71 | 1017.1 |
| 20260830234728 | 81 | 239 | 1.0 | 3.0 | 0.00 | 0.00 | 0.00 | 71 | 1017.1 |
| 20260830234228 | 81 | 169 | 1.0 | 3.0 | 0.00 | 0.00 | 0.00 | 71 | 1017.1 |
| 20260830233728 | 81 | 224 | 2.0 | 6.0 | 0.00 | 0.00 | 0.00 | 71 | 1017.0 |
| 20260830233227 | 81 | 217 | 2.0 | 6.0 | 0.00 | 0.00 | 0.00 | 71 | 1017.0 |
| 20260830232727 | 81 | 175 | 2.0 | 7.0 | 0.00 | 0.00 | 0.00 | 71 | 1016.9 |
| 20260830232227 | 81 | 235 | 3.0 | 8.0 | 0.00 | 0.00 | 0.00 | 70 | 1016.9 |
| 20260830231727 | 81 | 221 | 2.0 | 8.0 | 0.00 | 0.00 | 0.00 | 70 | 1017.0 |
| 20260830231227 | 81 | 202 | 3.0 | 8.0 | 0.00 | 0.00 | 0.00 | 70 | 1017.0 |
| 20260830230728 | 81 | 233 | 1.0 | 5.0 | 0.00 | 0.00 | 0.00 | 70 | 1017.0 |
| 20260830225816 | 81 | 203 | 2.0 | 5.0 | 0.00 | 0.00 | 0.00 | 69 | 1017.0 |
| 20260830224326 | 81 | 157 | 2.0 | 5.0 | 0.00 | 0.00 | 0.00 | 69 | 1017.0 |
| 20260830223838 | 81 | 232 | 2.0 | 5.0 | 0.00 | 0.00 | 0.00 | 69 | 1017.0 |
| 20260830222727 | 81 | 173 | 1.0 | 7.0 | 0.00 | 0.00 | 0.00 | 69 | 1016.9 |
| 20260830222227 | 81 | 196 | 1.0 | 7.0 | 0.00 | 0.00 | 0.00 | 69 | 1017.1 |
| 20260830221227 | 81 | 153 | 3.0 | 6.0 | 0.00 | 0.00 | 0.00 | 69 | 1017.1 |
| 20260830220727 | 81 | 187 | 2.0 | 6.0 | 0.00 | 0.00 | 0.00 | 69 | 1017.1 |
| 20260830220227 | 81 | 175 | 2.0 | 3.0 | 0.00 | 0.00 | 0.00 | 68 | 1017.3 |
| 20260830215227 | 82 | 246 | 1.0 | 7.0 | 0.00 | 0.00 | 0.00 | 68 | 1017.2 |
| 20260830214727 | 82 | 242 | 3.0 | 7.0 | 0.00 | 0.00 | 0.00 | 68 | 1017.2 |
| 20260830214227 | 82 | 153 | 3.0 | 7.0 | 0.00 | 0.00 | 0.00 | 68 | 1017.1 |
| 20260830213727 | 82 | 142 | 2.0 | 10.0 | 0.00 | 0.00 | 0.00 | 67 | 1017.0 |
| 20260830213227 | 82 | 133 | 3.0 | 10.0 | 0.00 | 0.00 | 0.00 | 67 | 1017.2 |
| 20260830212727 | 82 | 184 | 3.0 | 9.0 | 0.00 | 0.00 | 0.00 | 67 | 1017.1 |
| 20260830212227 | 82 | 198 | 4.0 | 9.0 | 0.00 | 0.00 | 0.00 | 67 | 1017.0 |
| 20260830211727 | 82 | 223 | 3.0 | 12.0 | 0.00 | 0.00 | 0.00 | 67 | 1017.1 |
| 20260830211227 | 82 | 198 | 3.0 | 12.0 | 0.00 | 0.00 | 0.00 | 67 | 1017.2 |
| 20260830210727 | 82 | 172 | 5.0 | 10.0 | 0.00 | 0.00 | 0.00 | 67 | 1017.1 |
| 20260830210227 | 82 | 292 | 5.0 | 10.0 | 0.00 | 0.00 | 0.00 | 66 | 1017.1 |
| 20260830205727 | 82 | 174 | 3.0 | 12.0 | 0.00 | 0.00 | 0.00 | 67 | 1017.3 |
| 20260830205227 | 82 | 175 | 2.0 | 12.0 | 0.00 | 0.00 | 0.00 | 67 | 1017.3 |
| 20260830204728 | 81 | 173 | 3.0 | 8.0 | 0.00 | 0.00 | 0.00 | 67 | 1017.4 |
| 20260830204228 | 81 | 200 | 2.0 | 8.0 | 0.00 | 0.00 | 0.00 | 68 | 1017.3 |
| 20260830203227 | 81 | 161 | 3.0 | 9.0 | 0.00 | 0.00 | 0.00 | 68 | 1017.5 |
| 20260830202728 | 81 | 257 | 4.0 | 9.0 | 0.00 | 0.00 | 0.00 | 67 | 1017.6 |
| 20260830202227 | 81 | 255 | 3.0 | 12.0 | 0.00 | 0.00 | 0.00 | 67 | 1017.6 |
| 20260830201706 | 81 | 167 | 5.0 | 12.0 | 0.00 | 0.00 | 0.00 | 67 | 1017.6 |
| 20260830201227 | 81 | 150 | 2.0 | 12.0 | 0.00 | 0.00 | 0.00 | 67 | 1017.7 |
| 20260830200727 | 81 | 279 | 3.0 | 12.0 | 0.00 | 0.00 | 0.00 | 67 | 1017.7 |
| 20260830200227 | 81 | 153 | 2.0 | 8.0 | 0.00 | 0.00 | 0.00 | 67 | 1017.7 |
| 20260830195727 | 81 | 191 | 2.0 | 8.0 | 0.00 | 0.00 | 0.00 | 67 | 1017.8 |
| 20260830195228 | 81 | 232 | 3.0 | 8.0 | 0.00 | 0.00 | 0.00 | 67 | 1017.9 |
| 20260830194727 | 81 | 155 | 5.0 | 9.0 | 0.00 | 0.00 | 0.00 | 67 | 1017.9 |
| 20260830194227 | 81 | 210 | 4.0 | 9.0 | 0.00 | 0.00 | 0.00 | 66 | 1017.9 |
| 20260830193727 | 81 | 178 | 4.0 | 9.0 | 0.00 | 0.00 | 0.00 | 66 | 1018.0 |
| 20260830193227 | 81 | 147 | 3.0 | 9.0 | 0.00 | 0.00 | 0.00 | 66 | 1017.9 |
| 20260830192728 | 81 | 269 | 3.0 | 8.0 | 0.00 | 0.00 | 0.00 | 66 | 1018.0 |
| 20260830192227 | 81 | 130 | 3.0 | 8.0 | 0.00 | 0.00 | 0.00 | 66 | 1018.1 |
| 20260830191727 | 80 | 183 | 3.0 | 7.0 | 0.00 | 0.00 | 0.00 | 67 | 1018.1 |
| 20260830191228 | 80 | 136 | 3.0 | 10.0 | 0.00 | 0.00 | 0.00 | 67 | 1018.3 |
| 20260830190727 | 80 | 163 | 3.0 | 10.0 | 0.00 | 0.00 | 0.00 | 67 | 1018.4 |
| 20260830190228 | 80 | 148 | 2.0 | 6.0 | 0.00 | 0.00 | 0.00 | 67 | 1018.5 |
| 20260830185727 | 80 | 208 | 1.0 | 6.0 | 0.00 | 0.00 | 0.00 | 67 | 1018.6 |
| 20260830185227 | 80 | 159 | 2.0 | 6.0 | 0.00 | 0.00 | 0.00 | 67 | 1018.7 |
| 20260830184227 | 80 | 153 | 2.0 | 6.0 | 0.00 | 0.00 | 0.00 | 66 | 1018.8 |
| 20260830183727 | 80 | 202 | 2.0 | 7.0 | 0.00 | 0.00 | 0.00 | 66 | 1018.9 |
| 20260830183226 | 80 | 213 | 1.0 | 9.0 | 0.00 | 0.00 | 0.00 | 67 | 1018.9 |
| 20260830182727 | 80 | 203 | 3.0 | 9.0 | 0.00 | 0.00 | 0.00 | 67 | 1018.9 |
| 20260830181726 | 79 | 187 | 3.0 | 8.0 | 0.00 | 0.00 | 0.00 | 67 | 1019.0 |
| 20260830181227 | 79 | 226 | 3.0 | 8.0 | 0.00 | 0.00 | 0.00 | 67 | 1019.1 |
| 20260830180726 | 79 | 142 | 1.0 | 10.0 | 0.00 | 0.00 | 0.00 | 67 | 1019.1 |
| 20260830180227 | 79 | 101 | 3.0 | 10.0 | 0.00 | 0.00 | 0.00 | 67 | 1019.1 |
| 20260830175227 | 79 | 242 | 3.0 | 12.0 | 0.00 | 0.00 | 0.00 | 67 | 1019.4 |
| 20260830174227 | 80 | 204 | 5.0 | 13.0 | 0.00 | 0.00 | 0.00 | 65 | 1019.4 |
| 20260830173727 | 80 | 152 | 5.0 | 10.0 | 0.00 | 0.00 | 0.00 | 65 | 1019.4 |
| 20260830173227 | 80 | 174 | 4.0 | 10.0 | 0.00 | 0.00 | 0.00 | 65 | 1019.3 |
| 20260830172727 | 80 | 115 | 3.0 | 12.0 | 0.00 | 0.00 | 0.00 | 65 | 1019.3 |
| 20260830172228 | 80 | 104 | 4.0 | 12.0 | 0.00 | 0.00 | 0.00 | 64 | 1019.3 |
| 20260830171727 | 81 | 209 | 3.0 | 10.0 | 0.00 | 0.00 | 0.00 | 62 | 1019.5 |
| 20260830170227 | 80 | 212 | 5.0 | 13.0 | 0.00 | 0.00 | 0.00 | 61 | 1019.7 |
| 20260830165727 | 79 | 151 | 4.0 | 13.0 | 0.00 | 0.00 | 0.00 | 62 | 1019.7 |
| 20260830165226 | 78 | 133 | 3.0 | 12.0 | 0.00 | 0.00 | 0.00 | 63 | 1019.6 |
| 20260830163727 | 78 | 133 | 3.0 | 12.0 | 0.00 | 0.00 | 0.00 | 62 | 1019.9 |
| 20260830162727 | 78 | 163 | 6.0 | 13.0 | 0.00 | 0.00 | 0.00 | 61 | 1019.9 |
| 20260830162227 | 78 | 173 | 6.0 | 13.0 | 0.00 | 0.00 | 0.00 | 60 | 1019.8 |
| 20260830161727 | 79 | 173 | 3.0 | 13.0 | 0.00 | 0.00 | 0.00 | 59 | 1020.0 |
| 20260830161227 | 79 | 221 | 3.0 | 13.0 | 0.00 | 0.00 | 0.00 | 59 | 1020.2 |
| 20260830160727 | 79 | 154 | 5.0 | 15.0 | 0.00 | 0.00 | 0.00 | 58 | 1020.2 |